Theta_e
306 305 306 307 306 309 310 309 306 304 305 304 303 301 301 301 302 302 303 306 308 310 311 313 312 313 314 312 315 317 314 316 318 319 320 322 322 323 324 324 326 327 328 328 328
304 305 307 308 308 309 310 309 305 304 305 305 304 302 301 301 302 305 307 306 314 316 316 313 311 309 312 314 315 313 310 315 316 317 318 320 320 321 321 322 323 327 327 327 328
308 309 309 309 310 310 310 307 304 304 305 306 305 302 301 301 309 320 314 313 315 314 315 309 310 313 313 314 315 313 314 314 316 318 319 319 320 320 320 320 324 326 328 327 327
308 309 310 310 310 310 307 304 305 305 306 306 304 301 301 302 318 318 316 312 310 309 307 312 315 315 310 310 313 311 313 314 316 317 317 317 319 319 319 320 322 325 327 327 327
309 310 310 311 311 306 305 305 305 305 305 305 302 301 301 307 308 316 317 311 310 312 311 317 319 318 309 309 311 311 311 314 315 316 317 318 317 318 318 320 321 322 327 326 327
308 310 311 311 306 306 306 306 305 303 303 303 301 301 303 308 318 317 317 314 310 312 315 316 316 314 315 311 312 313 313 313 315 315 316 315 316 317 318 320 320 322 327 327 327
307 310 311 307 307 308 309 310 309 303 302 302 301 301 303 306 316 317 315 314 313 316 316 315 314 314 313 311 313 313 312 311 312 314 313 315 313 315 317 318 319 319 327 328 328
308 309 311 307 309 309 310 310 310 309 304 302 302 304 305 314 312 314 316 316 316 316 316 315 314 314 313 313 312 311 311 310 311 313 314 314 314 314 317 317 318 319 319 325 327
309 307 311 308 310 311 310 311 315 310 309 306 306 318 316 315 317 314 314 315 316 317 316 314 314 314 313 310 307 308 309 310 311 312 312 313 314 314 317 316 317 318 318 319 320
304 309 310 308 310 313 315 316 317 317 313 312 310 315 317 318 317 315 313 312 314 315 314 314 313 310 307 307 308 309 310 310 311 313 313 312 312 314 316 316 316 317 317 319 319
306 309 307 309 310 314 316 316 316 317 314 315 316 317 320 319 316 313 313 313 314 315 312 313 309 309 309 310 311 311 311 311 313 313 314 313 313 313 315 314 314 315 318 319 319
307 305 310 308 310 313 315 316 316 317 313 315 315 316 316 318 319 314 314 314 314 312 311 310 310 311 312 312 313 313 313 312 312 314 314 312 313 312 314 314 315 317 317 317 318
310 309 306 309 316 317 317 317 316 316 314 315 316 316 316 318 319 315 315 315 313 312 312 311 312 314 314 313 314 314 314 312 313 314 313 312 312 312 314 315 316 316 317 317 318
311 310 308 308 309 315 316 317 314 316 314 318 318 318 317 317 315 315 315 315 313 313 312 311 312 313 314 313 313 312 312 314 315 313 312 314 313 312 314 313 313 315 316 316 317
310 311 310 306 310 315 316 316 314 315 321 322 317 316 315 315 316 316 315 315 314 313 312 313 313 313 313 314 317 315 314 314 314 312 311 313 311 312 312 313 312 312 314 316 316
309 310 312 306 308 316 316 315 315 319 325 321 315 315 313 314 315 315 316 316 315 313 312 312 314 314 315 317 317 317 315 311 310 309 311 312 311 313 312 312 312 313 316 315 315
310 311 313 309 308 315 315 316 315 321 322 320 317 316 314 313 313 314 315 313 313 312 312 316 316 316 317 318 317 318 317 316 312 310 313 312 315 313 315 316 316 316 314 316 316
311 311 315 309 312 314 316 314 319 319 319 317 315 315 316 313 313 314 314 313 314 316 317 319 317 318 318 319 319 318 316 315 319 314 314 316 317 315 316 317 317 317 314 316 318
312 312 317 315 313 314 316 315 316 320 318 314 314 314 313 313 313 313 313 316 316 315 317 319 319 316 317 317 318 318 317 316 318 318 320 316 315 315 316 317 317 317 315 315 317
314 311 319 319 316 314 312 315 316 318 314 313 313 313 312 312 313 313 314 316 316 315 313 316 316 316 316 316 316 318 317 315 319 322 322 317 316 315 318 318 317 317 315 315 314
313 309 319 318 316 314 313 314 316 314 313 313 312 312 312 313 312 312 313 313 315 314 313 314 314 314 313 316 316 316 317 316 316 319 321 318 313 315 317 316 318 317 317 316 316
310 307 318 318 313 311 311 314 313 313 312 313 313 312 312 311 312 312 312 313 314 314 314 313 311 312 312 310 314 315 316 315 316 318 318 317 314 314 314 314 315 316 317 317 316
310 308 315 316 312 311 311 313 313 313 313 312 312 312 310 310 310 313 312 312 313 312 313 312 309 309 309 311 312 313 314 314 313 314 316 318 314 314 315 315 315 315 317 316 316
307 312 311 311 311 311 312 314 314 313 310 310 310 310 309 309 309 310 311 313 313 313 314 311 307 308 310 310 309 313 314 314 314 314 317 317 315 315 314 314 314 315 316 316 315
309 309 306 308 308 308 310 312 312 310 309 308 308 309 309 309 309 309 310 310 311 315 312 309 310 311 312 313 313 313 313 314 315 314 314 314 315 314 314 313 313 315 315 316 316
308 306 306 305 307 311 310 312 312 311 308 308 308 309 308 307 308 309 309 309 309 309 308 307 309 312 312 311 312 312 313 314 316 316 316 315 313 313 313 314 314 313 315 315 314
307 307 306 306 308 310 310 309 311 309 307 306 307 307 307 307 309 309 308 309 308 308 307 307 307 308 310 312 312 312 315 315 315 315 315 314 315 313 312 311 311 312 312 311 312
Wind_Speed
22 21 19 17 17 16 14 12 9 8 7 8 10 10 10 11 12 15 19 12 9 10 8 8 10 10 9 9 14 10 2 7 8 9 10 28 12 23 27 20 11 19 6 15 16
23 22 20 16 14 14 13 12 9 6 6 7 9 9 10 12 15 17 9 9 10 10 6 8 10 9 6 6 8 7 5 7 6 6 8 23 23 18 15 26 26 21 2 17 15
23 22 19 17 13 11 11 11 9 6 5 6 7 6 8 11 12 6 4 5 7 5 7 8 6 5 9 16 12 5 7 5 11 20 26 24 31 27 17 11 23 18 15 16 13
25 22 18 15 13 9 9 9 8 7 6 6 5 4 6 7 1 3 5 4 3 1 5 8 6 4 5 5 19 6 11 20 22 31 29 15 33 25 19 22 19 28 19 13 12
25 22 18 14 12 10 8 8 7 6 7 6 4 3 4 4 6 2 1 4 3 1 7 7 5 6 3 5 10 5 7 23 30 34 33 35 30 25 28 22 18 23 15 26 12
25 23 18 13 11 9 8 7 7 6 5 4 4 4 3 4 2 3 2 2 4 5 6 6 7 13 10 3 2 7 12 15 19 26 28 20 25 17 22 10 6 14 20 21 19
26 22 18 14 10 8 9 8 6 4 4 3 3 5 8 11 1 4 2 4 7 6 6 8 9 8 9 7 10 12 7 10 6 7 6 10 8 15 18 7 10 12 17 27 29
26 22 17 12 10 8 8 8 7 5 4 3 3 7 8 4 8 10 9 3 2 3 8 10 6 8 3 11 11 5 3 4 5 5 10 4 17 16 28 22 17 20 18 20 28
25 22 16 11 10 9 7 7 8 5 3 2 3 6 8 8 12 11 14 13 8 9 10 9 9 5 7 2 5 5 5 7 9 8 5 5 17 10 26 24 25 19 11 24 26
27 22 16 10 9 8 9 10 10 6 4 5 7 7 6 3 7 6 11 11 14 8 4 8 5 1 4 4 4 7 5 6 8 11 5 12 16 18 31 25 30 26 15 16 20
28 22 17 10 7 7 9 7 8 1 8 12 13 16 22 8 9 7 9 11 11 7 1 9 2 6 13 10 13 8 12 15 16 15 4 6 10 10 22 19 18 12 18 16 17
30 24 16 10 8 7 10 10 8 13 13 20 23 25 23 18 10 10 11 10 7 6 4 4 7 14 12 12 12 14 15 17 10 7 5 7 11 8 9 8 15 12 13 17 20
31 27 18 10 7 8 10 9 13 9 6 17 14 16 20 15 20 20 17 18 7 6 7 9 13 10 11 13 13 15 14 6 7 4 5 4 7 7 5 7 7 12 14 16 18
33 31 22 11 9 6 3 13 12 11 4 6 7 6 13 14 6 17 24 20 7 13 9 8 10 9 12 11 8 6 8 7 4 3 4 3 6 6 5 8 7 17 17 17 23
34 35 26 14 7 7 10 9 9 6 3 5 5 6 14 12 2 6 19 22 14 11 7 12 6 7 11 5 7 4 10 6 4 2 1 4 1 9 4 10 9 11 22 29 28
34 36 25 12 10 2 10 9 7 4 4 3 4 4 4 8 8 7 15 24 16 10 6 9 2 1 2 10 2 5 4 6 5 2 2 7 5 9 7 5 5 9 28 34 34
34 33 19 11 1 1 7 6 4 2 7 3 3 3 4 5 4 1 1 6 12 2 2 8 7 7 5 6 2 6 3 3 4 4 11 5 4 17 2 7 4 18 34 29 23
34 29 10 3 7 1 5 4 2 5 6 8 6 6 2 8 6 9 7 6 10 5 2 3 5 6 4 3 3 4 6 5 7 3 12 5 6 6 5 8 11 27 35 24 34
38 25 4 2 7 2 2 3 5 2 5 1 3 3 5 8 4 6 5 2 3 3 3 4 6 3 7 3 2 1 4 2 3 4 4 5 7 8 6 2 11 18 29 13 34
41 27 6 8 5 1 4 4 4 3 14 1 2 2 3 5 6 7 3 1 1 3 4 3 4 6 1 3 4 6 6 4 1 4 5 4 6 5 3 4 11 13 18 26 22
28 12 1 3 8 3 2 5 4 16 14 3 3 2 3 3 3 3 4 4 3 2 7 3 2 5 3 4 3 1 4 2 2 2 2 3 5 3 5 4 3 9 22 12 15
17 3 5 6 1 1 1 7 11 8 18 3 2 3 2 1 3 3 4 4 7 6 4 1 4 3 8 12 5 3 4 3 3 3 4 2 5 6 4 6 9 9 15 19 14
24 7 12 8 2 4 7 7 4 7 5 4 2 4 3 3 3 2 4 7 5 3 6 5 0 3 9 4 3 1 4 4 3 2 5 2 4 2 7 9 5 11 17 23 25
8 4 8 5 6 3 5 6 10 16 5 5 3 3 4 3 2 4 3 4 5 3 10 9 3 5 5 7 4 5 4 7 7 3 4 5 8 9 6 8 11 13 6 18 28
5 3 6 4 6 9 9 6 9 10 4 7 3 2 2 1 3 3 3 5 6 5 1 5 4 4 6 10 12 13 13 12 10 10 4 3 3 2 3 6 10 15 10 7 7
8 6 10 12 12 4 5 5 9 14 10 4 3 5 4 3 4 3 1 0 4 2 4 3 3 2 4 13 8 13 8 8 1 2 3 5 4 2 8 11 10 17 14 17 15
8 7 5 7 6 3 2 7 10 15 13 16 9 3 4 6 5 9 13 10 8 3 1 2 2 3 5 7 12 3 9 5 5 2 3 2 1 5 7 7 12 18 22 23 21
Wind_Direction
342 337 333 333 325 313 305 303 304 303 308 313 310 303 303 297 286 273 263 241 198 184 229 231 232 218 211 231 223 213 179 233 226 230 255 284 288 293 300 294 228 247 245 171 145
345 341 337 335 329 320 311 308 302 297 303 308 308 311 312 305 303 283 283 209 191 182 228 254 241 215 216 235 221 180 195 234 235 245 248 264 278 288 303 303 297 270 103 156 160
350 345 343 335 335 327 317 312 305 296 293 296 299 311 310 319 322 11 103 160 189 190 259 252 206 254 259 244 234 221 237 242 264 262 261 264 273 280 266 271 281 264 246 175 188
353 350 346 344 335 335 325 322 318 309 295 289 288 293 299 327 76 16 69 75 99 197 219 185 227 219 194 208 241 244 260 240 257 261 264 269 275 272 261 259 278 270 252 246 218
358 357 352 350 345 338 337 330 323 311 299 287 274 263 291 286 262 332 67 56 95 150 179 204 261 271 257 232 255 189 244 251 250 251 255 260 263 265 260 263 273 273 223 266 226
3 360 357 354 353 351 350 348 337 325 305 289 276 258 248 268 150 152 196 287 180 194 216 249 293 325 254 234 160 301 294 280 278 260 255 258 269 266 268 222 243 261 252 245 245
2 2 360 358 1 4 4 0 356 341 322 304 285 278 267 239 87 175 236 29 176 181 285 318 327 348 340 335 331 320 314 316 257 263 242 269 269 253 268 237 247 255 236 247 234
4 1 1 360 2 1 5 11 8 347 335 311 297 302 265 118 196 223 222 182 147 255 277 298 310 315 351 324 334 339 350 328 293 311 286 198 269 267 275 281 263 245 237 231 232
3 1 356 354 356 356 348 341 345 339 327 307 291 308 267 197 236 234 220 226 249 257 247 263 274 290 295 21 359 342 255 281 300 262 266 168 275 265 273 262 259 241 239 231 220
2 360 353 347 347 354 359 341 316 288 289 288 248 313 249 283 241 216 225 238 247 272 251 242 261 184 359 82 235 241 254 258 265 282 232 266 263 275 276 241 239 241 232 220 226
358 355 353 339 333 334 345 352 356 310 257 254 258 262 276 306 179 170 167 212 233 274 299 293 101 234 236 225 236 240 258 264 270 276 249 251 278 282 305 225 227 233 210 178 176
356 352 349 334 319 323 333 335 346 330 292 280 261 254 264 272 283 205 185 197 201 215 254 345 259 255 249 258 248 248 253 262 272 248 267 281 286 289 288 244 194 192 227 226 197
356 350 341 323 303 314 325 359 334 328 291 298 245 231 230 236 246 241 209 213 195 212 225 213 242 265 261 264 266 269 244 234 239 307 313 315 291 301 302 278 217 221 234 244 239
353 347 336 317 295 286 331 357 359 347 24 276 194 225 229 217 243 248 223 204 208 217 227 241 251 258 289 294 289 278 251 254 263 69 246 90 283 301 293 286 303 302 294 271 262
348 343 340 299 274 277 340 334 333 317 349 187 176 182 177 168 166 222 209 208 221 216 141 236 254 273 285 308 9 289 296 241 194 203 57 239 165 278 308 289 289 293 289 286 289
343 342 339 298 265 325 346 325 333 50 274 225 128 181 129 224 254 265 212 225 230 224 225 231 315 120 200 309 146 317 17 14 351 88 283 265 166 282 250 235 292 284 294 282 284
341 340 332 316 232 11 329 2 51 152 297 28 99 77 213 250 276 34 269 229 218 214 321 0 319 304 329 288 216 65 51 2 317 311 250 175 190 239 343 288 286 332 303 265 242
342 340 346 65 144 281 8 57 150 261 1 25 7 355 340 39 342 351 3 346 26 55 100 89 324 359 21 12 354 300 170 180 235 226 271 313 240 249 217 297 350 350 320 210 172
344 343 272 145 131 120 37 88 215 281 346 30 345 306 0 2 358 5 354 28 91 69 146 200 225 250 244 105 240 70 231 219 129 218 256 249 291 315 254 342 12 5 22 126 155
336 334 306 199 174 172 77 240 263 314 329 89 102 42 337 328 333 0 330 93 33 125 141 191 287 239 343 169 243 195 303 76 166 233 236 257 243 247 341 345 10 347 0 32 27
342 330 238 167 183 204 169 233 273 315 343 287 206 293 336 22 323 324 286 310 136 120 93 128 139 289 339 238 204 272 224 38 130 202 296 322 277 240 173 142 81 319 292 4 15
346 326 150 211 268 289 272 314 331 340 343 314 120 156 124 303 274 262 249 240 190 157 137 82 150 258 255 286 204 164 166 162 133 212 228 204 266 268 152 145 184 221 230 275 297
330 292 24 207 28 331 322 311 291 322 313 311 42 48 51 9 328 274 327 294 148 139 162 179 27 344 333 354 330 93 185 140 109 113 228 202 251 331 335 317 240 224 200 277 289
326 333 345 28 77 17 337 294 334 331 34 41 29 28 26 1 192 280 324 1 346 123 133 146 159 171 211 243 232 285 247 201 174 178 215 227 307 321 339 3 344 344 300 215 234
347 338 11 330 341 329 342 275 353 353 8 29 339 355 300 299 296 296 354 11 351 92 123 134 202 227 266 282 285 280 281 284 210 233 227 288 307 326 337 318 308 316 324 316 303
353 353 340 301 300 2 350 307 325 336 331 326 346 359 354 258 210 262 336 187 229 335 23 355 248 264 273 282 290 313 321 288 337 135 230 271 236 305 309 320 323 343 321 315 298
319 302 300 278 305 318 235 325 321 324 307 325 310 289 252 261 257 270 262 229 222 190 236 224 140 36 277 302 303 352 348 342 307 258 240 253 298 327 311 302 312 306 303 297 291